Detroit Metro, MI

7:18 AM EDT on September 24, 2017 (GMT -0400)
Detroit Metro Wayne County

Weather History for KDTW - September, 2013

Change the Weather History Date:

Tuesday, September 17, 2013

  Actual Average Record
Temperature  
Mean Temperature 55 °F 64 °F  
Max Temperature 67 °F 74 °F 93 °F (1955)
Min Temperature 42 °F 54 °F 36 °F (1959)
Degree Days  
Heating Degree Days 10 3  
Month to date heating degree days 50 31  
Since 1 July heating degree days 62 41  
Cooling Degree Days 0 2  
Month to date cooling degree days 65 64  
Year to date cooling degree days 858 775  
Growing Degree Days 4 (Base 50)    
Moisture  
Dew Point 43 °F    
Average Humidity 66    
Maximum Humidity 89    
Minimum Humidity 42    
Precipitation  
Precipitation 0.00 in 0.11 in 1.20 in (1905)
Month to date precipitation 0.27 1.88  
Year to date precipitation 31.25 24.31  
Snow  
Snow 0.00 in 0.00 in 0.00 in ()
Month to date snowfall 0.0 0.0  
Since 1 July snowfall 0.0 0.0  
Since 1 September snowfall 0.0 0.0  
Snow Depth 0.00 in    
Sea Level Pressure  
Sea Level Pressure 30.35 in    
Wind  
Wind Speed 5 mph (NE)    
Max Wind Speed 12 mph    
Max Gust Speed 16 mph    
Visibility 10 miles    
Events      
T = Trace of Precipitation, MM = Missing Value Source: NWS Daily Summary

Daily Weather History Graph

Daily Weather History Graph

Search for Another Location

Airport or City:

Trip Planner

Search our weather history database for the weather conditions in past years. The results will help you decide how hot, cold, wet, or windy it might be!

Date:

Astronomy

Sep. 17, 2013 Rise Set
Actual Time 7:15 AM EDT 7:39 PM EDT
Civil Twilight 6:47 AM EDT 8:07 PM EDT
Nautical Twilight 6:14 AM EDT 8:40 PM EDT
Astronomical Twilight 5:40 AM EDT 9:13 PM EDT
Moon 6:26 PM EDT (9/17) 5:07 AM EDT (9/17)
Length of Visible Light 13h 19m
Length of Day
12h 23m
Waxing Gibbous, 96% of the Moon is Illuminated
Sep 17
Waxing Gibbous
Sep 19
Full
Sep 26
Last Quarter
Oct 4
New
Oct 11
First Quarter

Hourly Weather History & Observations

Time (EDT) Temp. Windchill Dew Point Humidity Pressure Visibility Wind Dir Wind Speed Gust Speed Precip Events Conditions
12:53 AM 46.9 °F - 41.0 °F 80% 30.39 in 10.0 mi North 6.9 mph - N/A   Clear
1:53 AM 45.0 °F 42.6 °F 39.9 °F 82% 30.40 in 10.0 mi North 4.6 mph - N/A   Clear
2:53 AM 44.1 °F 42.5 °F 39.9 °F 85% 30.40 in 10.0 mi North 3.5 mph - N/A   Clear
3:53 AM 43.0 °F 41.3 °F 39.9 °F 89% 30.40 in 10.0 mi NNW 3.5 mph - N/A   Scattered Clouds
4:53 AM 42.1 °F 40.2 °F 39.0 °F 89% 30.41 in 10.0 mi NNW 3.5 mph - N/A   Partly Cloudy
5:53 AM 42.1 °F 40.2 °F 39.0 °F 89% 30.41 in 10.0 mi NNW 3.5 mph - N/A   Partly Cloudy
6:53 AM 42.1 °F 39.2 °F 39.0 °F 89% 30.42 in 10.0 mi NNW 4.6 mph - N/A   Mostly Cloudy
7:53 AM 44.1 °F 40.8 °F 41.0 °F 89% 30.42 in 10.0 mi North 5.8 mph - N/A   Mostly Cloudy
8:53 AM 48.0 °F - 43.0 °F 83% 30.42 in 10.0 mi North 5.8 mph - N/A   Mostly Cloudy
9:53 AM 54.0 °F - 48.0 °F 80% 30.42 in 10.0 mi NE 3.5 mph - N/A   Scattered Clouds
10:53 AM 57.9 °F - 48.9 °F 72% 30.41 in 10.0 mi East 6.9 mph - N/A   Mostly Cloudy
11:53 AM 61.0 °F - 48.9 °F 64% 30.41 in 10.0 mi ESE 5.8 mph - N/A   Mostly Cloudy
12:53 PM 63.0 °F - 46.9 °F 56% 30.39 in 10.0 mi ESE 9.2 mph - N/A   Scattered Clouds
1:53 PM 64.9 °F - 46.0 °F 50% 30.36 in 10.0 mi Variable 6.9 mph 16.1 mph N/A   Scattered Clouds
2:53 PM 66.0 °F - 43.0 °F 43% 30.34 in 10.0 mi East 8.1 mph - N/A   Scattered Clouds
3:53 PM 66.9 °F - 44.1 °F 44% 30.32 in 10.0 mi ESE 9.2 mph - N/A   Scattered Clouds
4:53 PM 66.0 °F - 44.1 °F 45% 30.30 in 10.0 mi SSE 10.4 mph - N/A   Scattered Clouds
5:53 PM 64.0 °F - 42.1 °F 45% 30.29 in 10.0 mi SE 6.9 mph - N/A   Scattered Clouds
6:53 PM 63.0 °F - 41.0 °F 45% 30.28 in 10.0 mi East 6.9 mph - N/A   Mostly Cloudy
7:53 PM 60.1 °F - 39.9 °F 47% 30.27 in 10.0 mi East 3.5 mph - N/A   Mostly Cloudy
8:53 PM 57.9 °F - 42.1 °F 56% 30.27 in 10.0 mi East 3.5 mph - N/A   Mostly Cloudy
9:53 PM 55.9 °F - 44.1 °F 64% 30.25 in 10.0 mi ENE 4.6 mph - N/A   Mostly Cloudy
10:53 PM 55.0 °F - 46.0 °F 72% 30.25 in 10.0 mi ENE 3.5 mph - N/A   Mostly Cloudy
11:53 PM 53.1 °F - 46.0 °F 77% 30.24 in 10.0 mi Calm Calm - N/A   Mostly Cloudy